This is the latest recevied weather packets stored in our database for station/object W9PEM-13. If no packets are shown the sender has not sent any weather packets the latest 10 day(s).
| Time | Temp. | Humidity | Pressure | Rain* | Wind** | Luminosity | Snow |
|---|---|---|---|---|---|---|---|
| 1778177332 | 11.67° C | 46% | 981.4 hPa | 0 mm | - | 431 W/m² | - |
| 1778177181 | 11.67° C | 46% | 981.4 hPa | 0 mm | - | 431 W/m² | - |
| 1778176689 | 10.56° C | 49% | 981.5 hPa | 0 mm | - | 875 W/m² | - |
| 1778176581 | 10.56° C | 49% | 981.5 hPa | 0 mm | - | 875 W/m² | - |
| 1778176076 | 10.56° C | 51% | 981.6 hPa | 0 mm | - | 317 W/m² | - |
| 1778175982 | 10.56° C | 51% | 981.6 hPa | 0 mm | - | 317 W/m² | - |
| 1778175414 | 10.56° C | 48% | 981.8 hPa | 0 mm | - | 346 W/m² | - |
| 1778175381 | 10.56° C | 48% | 981.8 hPa | 0 mm | - | 346 W/m² | - |
| 1778174883 | 10.56° C | 48% | 981.9 hPa | 0 mm | - | 337 W/m² | - |
| 1778174240 | 10.56° C | 48% | 982 hPa | 0 mm | - | 942 W/m² | - |
| 1778173649 | 10.56° C | 47% | 982.2 hPa | 0 mm | - | 989 W/m² | - |
| 1778173581 | 10.56° C | 47% | 982.2 hPa | 0 mm | - | 989 W/m² | - |
| 1778173097 | 10° C | 47% | 982.4 hPa | 0 mm | - | 904 W/m² | - |
| 1778172981 | 10° C | 47% | 982.4 hPa | 0 mm | - | 904 W/m² | - |
| 1778172489 | 10° C | 48% | 982.4 hPa | 0 mm | - | 811 W/m² | - |
| 1778172381 | 10° C | 48% | 982.4 hPa | 0 mm | - | 811 W/m² | - |
| 1778171883 | 10° C | 50% | 982.6 hPa | 0 mm | - | 762 W/m² | - |
| 1778171781 | 10° C | 50% | 982.6 hPa | 0 mm | - | 762 W/m² | - |
| 1778171271 | 9.44° C | 50% | 982.8 hPa | 0 mm | - | 882 W/m² | - |
| 1778171182 | 9.44° C | 50% | 982.8 hPa | 0 mm | - | 882 W/m² | - |
| 1778170667 | 8.89° C | 48% | 982.8 hPa | 0 mm | - | 864 W/m² | - |
| 1778170581 | 8.89° C | 48% | 982.8 hPa | 0 mm | - | 864 W/m² | - |
| 1778170052 | 8.89° C | 51% | 983 hPa | 0 mm | - | 688 W/m² | - |
| 1778169981 | 8.89° C | 51% | 983 hPa | 0 mm | - | 688 W/m² | - |
| 1778169427 | 8.89° C | 50% | 983.1 hPa | 0 mm | - | 614 W/m² | - |
* Rain latest hour (hover to see other rain measurements)
** Current wind speed in m/s (hover to see current wind gust speed)